THY6BA LTFM-LOWW

Flight info

Callsign THY6BA
Flight time N/A
Altitude 36000
Route TUDBU1D/35L TUDBU DCT ETUBA DCT APROB DCT BALUX DCT TORNO DCT NATEX NATEX2W
Aircraft A21N/M-SDE2E3FGHIRWXY/LB1

Departure

Time 2026-05-01 09:16
Airport İstanbul Airport (LTFM)

Arrival

Time N/A
Airport Vienna International Airport (LOWW)
Time Latitude Longitude Altitude Speed Heading
2026-05-01 09:16 41.32817 28.72458 2593 ft 162 kts
2026-05-01 09:16 41.34019 28.72482 2986 ft 183 kts
2026-05-01 09:17 41.36840 28.72526 3683 ft 217 kts
2026-05-01 09:17 41.38365 28.72306 4293 ft 226 kts 349°
2026-05-01 09:17 41.41438 28.70569 5428 ft 250 kts 339°
2026-05-01 09:18 41.43014 28.69541 6155 ft 256 kts 338°
2026-05-01 09:18 41.46249 28.67439 7730 ft 260 kts 337°
2026-05-01 09:19 41.49593 28.65288 9182 ft 272 kts 335°
2026-05-01 09:19 41.51311 28.64187 9965 ft 277 kts 334°
2026-05-01 09:19 41.53082 28.63052 10542 ft 290 kts 334°
2026-05-01 09:20 41.56939 28.60451 11143 ft 330 kts 325°
2026-05-01 09:20 41.60323 28.56174 12595 ft 340 kts 311°
2026-05-01 09:21 41.63516 28.51466 14254 ft 344 kts 310°
2026-05-01 09:21 41.65132 28.49082 14963 ft 348 kts 310°
2026-05-01 09:21 41.67920 28.43793 16313 ft 351 kts 294°
2026-05-01 09:22 41.69910 28.37801 17651 ft 356 kts 291°
2026-05-01 09:22 41.71881 28.31703 18881 ft 360 kts 292°
2026-05-01 09:23 41.72871 28.28653 19406 ft 363 kts 292°
2026-05-01 09:23 41.74905 28.22395 20474 ft 370 kts 291°
2026-05-01 09:24 41.76969 28.16040 21541 ft 374 kts 291°
2026-05-01 09:24 41.78010 28.12829 22068 ft 377 kts 291°
2026-05-01 09:24 41.80503 28.06587 23042 ft 386 kts 301°
2026-05-01 09:25 41.83739 28.00758 23915 ft 393 kts 303°
2026-05-01 09:25 41.87062 27.94871 24632 ft 398 kts 303°
2026-05-01 09:26 41.88734 27.91895 24987 ft 401 kts 303°
2026-05-01 09:26 41.92104 27.85879 25676 ft 405 kts 303°
2026-05-01 09:26 41.93799 27.82847 26032 ft 407 kts 303°
2026-05-01 09:27 41.97331 27.76845 26703 ft 413 kts 308°
2026-05-01 09:27 41.99290 27.74000 27037 ft 416 kts 310°
2026-05-01 09:27 42.00626 27.72140 27227 ft 418 kts 310°
2026-05-01 09:28 42.02675 27.69349 27524 ft 421 kts 311°
2026-05-01 09:28 42.04746 27.66558 27847 ft 423 kts 311°
2026-05-01 09:28 42.06829 27.63748 28152 ft 425 kts 311°
2026-05-01 09:28 42.08913 27.60922 28443 ft 427 kts 311°
2026-05-01 09:29 42.13098 27.55203 29018 ft 430 kts 311°
2026-05-01 09:29 42.15190 27.52328 29435 ft 429 kts 311°
2026-05-01 09:30 42.19351 27.46597 30199 ft 427 kts 311°
2026-05-01 09:30 42.21425 27.43734 30503 ft 427 kts 311°
2026-05-01 09:30 42.25572 27.37999 31073 ft 425 kts 311°
2026-05-01 09:31 42.27631 27.35149 31420 ft 423 kts 311°
2026-05-01 09:31 42.29684 27.32305 31668 ft 423 kts 311°
2026-05-01 09:31 42.33800 27.26591 32083 ft 425 kts 311°
2026-05-01 09:32 42.35861 27.23727 32305 ft 425 kts 311°
2026-05-01 09:32 42.39978 27.17997 32747 ft 425 kts 311°
2026-05-01 09:32 42.42036 27.15128 32975 ft 424 kts 311°
2026-05-01 09:33 42.44089 27.12263 33209 ft 424 kts 311°
2026-05-01 09:33 42.46143 27.09394 33379 ft 425 kts 311°
2026-05-01 09:33 42.50264 27.03629 33719 ft 426 kts 311°
2026-05-01 09:34 42.52325 27.00742 33901 ft 426 kts 311°
2026-05-01 09:34 42.54383 26.97857 34079 ft 426 kts 311°
2026-05-01 09:34 42.58498 26.92076 34392 ft 426 kts 311°
2026-05-01 09:35 42.60556 26.89181 34539 ft 426 kts 311°
2026-05-01 09:35 42.64663 26.83395 34811 ft 426 kts 311°
2026-05-01 09:35 42.66716 26.80499 34936 ft 425 kts 311°
2026-05-01 09:36 42.68768 26.77600 35051 ft 426 kts 311°
2026-05-01 09:36 42.70821 26.74698 35160 ft 426 kts 311°
2026-05-01 09:36 42.72879 26.71786 35248 ft 427 kts 311°
2026-05-01 09:36 42.74936 26.68870 35350 ft 428 kts 311°
2026-05-01 09:37 42.76997 26.65947 35433 ft 429 kts 311°
2026-05-01 09:37 42.81132 26.60079 35603 ft 430 kts 312°
2026-05-01 09:37 42.83234 26.57176 35706 ft 431 kts 313°
2026-05-01 09:38 42.87510 26.51441 35857 ft 432 kts 314°
2026-05-01 09:38 42.89667 26.48571 35930 ft 433 kts 314°
2026-05-01 09:39 42.96125 26.39938 36123 ft 436 kts 314°
2026-05-01 09:39 43.00451 26.34115 36281 ft 437 kts 313°
2026-05-01 09:40 43.06957 26.25323 36309 ft 439 kts 314°
2026-05-01 09:41 43.11294 26.19448 36318 ft 438 kts 314°
2026-05-01 09:41 43.17784 26.10635 36320 ft 438 kts 314°
2026-05-01 09:42 43.22110 26.04745 36315 ft 438 kts 314°
2026-05-01 09:43 43.30742 25.92953 36322 ft 438 kts 314°
2026-05-01 09:43 43.35057 25.87041 36321 ft 438 kts 314°
2026-05-01 09:44 43.41524 25.78155 36322 ft 438 kts 314°
2026-05-01 09:45 43.45832 25.72220 36325 ft 438 kts 314°
2026-05-01 09:45 43.52286 25.63305 36322 ft 438 kts 314°
2026-05-01 09:46 43.56586 25.57350 36321 ft 438 kts 314°
2026-05-01 09:46 43.60881 25.51388 36323 ft 438 kts 314°
2026-05-01 09:47 43.65172 25.45419 36328 ft 438 kts 314°
2026-05-01 09:47 43.69464 25.39436 36322 ft 438 kts 314°
2026-05-01 09:48 43.73747 25.33453 36321 ft 438 kts 314°
2026-05-01 09:48 43.78027 25.27460 36332 ft 438 kts 314°
2026-05-01 09:49 43.82305 25.21458 36322 ft 438 kts 314°
2026-05-01 09:49 43.86585 25.15441 36333 ft 438 kts 314°
2026-05-01 09:50 43.90829 25.09461 36333 ft 438 kts 314°
2026-05-01 09:50 43.95096 25.03434 36329 ft 438 kts 314°
2026-05-01 09:51 43.99298 24.97303 36339 ft 438 kts 311°
2026-05-01 09:51 44.03323 24.90956 36326 ft 438 kts 310°
2026-05-01 09:52 44.07318 24.84556 36337 ft 438 kts 311°
2026-05-01 09:52 44.11318 24.78173 36334 ft 438 kts 311°
2026-05-01 09:53 44.15336 24.71785 36340 ft 438 kts 311°
2026-05-01 09:53 44.19355 24.65390 36341 ft 438 kts 311°
2026-05-01 09:54 44.23368 24.58992 36334 ft 438 kts 311°
2026-05-01 09:54 44.27378 24.52581 36337 ft 439 kts 311°
2026-05-01 09:55 44.31391 24.46150 36331 ft 440 kts 311°
2026-05-01 09:55 44.35402 24.39708 36336 ft 440 kts 311°
2026-05-01 09:56 44.39410 24.33255 36334 ft 439 kts 311°
2026-05-01 09:56 44.43414 24.26794 36333 ft 440 kts 311°
2026-05-01 09:57 44.47421 24.20316 36335 ft 440 kts 311°
2026-05-01 09:57 44.51424 24.13828 36332 ft 440 kts 311°
2026-05-01 09:58 44.55421 24.07335 36333 ft 440 kts 311°
2026-05-01 09:58 44.59417 24.00827 36331 ft 440 kts 312°
2026-05-01 09:59 44.63410 23.94310 36328 ft 441 kts 311°
2026-05-01 09:59 44.67402 23.87779 36315 ft 441 kts 311°
2026-05-01 10:00 44.71390 23.81242 36317 ft 440 kts 311°
2026-05-01 10:00 44.75370 23.74700 36310 ft 440 kts 312°
2026-05-01 10:01 44.79352 23.68141 36311 ft 441 kts 312°
2026-05-01 10:01 44.83330 23.61573 36312 ft 441 kts 312°
2026-05-01 10:02 44.87277 23.55041 36309 ft 441 kts 311°
2026-05-01 10:02 44.91244 23.48462 36295 ft 441 kts 312°
2026-05-01 10:03 44.95215 23.41858 36301 ft 441 kts 312°
2026-05-01 10:03 44.99185 23.35243 36300 ft 442 kts 312°
2026-05-01 10:04 45.03153 23.28614 36301 ft 441 kts 312°
2026-05-01 10:04 45.07114 23.21983 36296 ft 441 kts 312°
2026-05-01 10:05 45.11073 23.15338 36299 ft 441 kts 312°
2026-05-01 10:05 45.15027 23.08685 36298 ft 441 kts 312°
2026-05-01 10:06 45.18976 23.02026 36294 ft 441 kts 312°
2026-05-01 10:06 45.22922 22.95357 36291 ft 441 kts 312°
2026-05-01 10:07 45.26867 22.88671 36297 ft 442 kts 312°
2026-05-01 10:07 45.30819 22.81961 36293 ft 443 kts 312°
2026-05-01 10:08 45.36712 22.71922 36297 ft 443 kts 312°
2026-05-01 10:09 45.40650 22.65194 36284 ft 443 kts 313°
2026-05-01 10:09 45.44592 22.58441 36304 ft 444 kts 313°
2026-05-01 10:10 45.48542 22.51661 36297 ft 444 kts 313°
2026-05-01 10:10 45.54457 22.41477 36300 ft 444 kts 312°
2026-05-01 10:11 45.58392 22.34680 36302 ft 445 kts 313°
2026-05-01 10:11 45.62331 22.27859 36309 ft 445 kts 313°
2026-05-01 10:12 45.65603 22.22183 36315 ft 445 kts 313°
2026-05-01 10:13 45.72164 22.10763 36321 ft 445 kts 313°
2026-05-01 10:13 45.76090 22.03905 36314 ft 445 kts 313°
2026-05-01 10:14 45.81977 21.93595 36316 ft 446 kts 313°
2026-05-01 10:14 45.85895 21.86711 36317 ft 446 kts 313°
2026-05-01 10:15 45.89812 21.79812 36301 ft 446 kts 313°
2026-05-01 10:15 45.93062 21.74073 36323 ft 446 kts 313°
2026-05-01 10:16 45.96981 21.67141 36323 ft 447 kts 313°
2026-05-01 10:17 46.02846 21.56732 36326 ft 446 kts 313°
2026-05-01 10:17 46.08699 21.46302 36338 ft 447 kts 314°
2026-05-01 10:18 46.14548 21.35844 36348 ft 447 kts 314°
2026-05-01 10:19 46.18445 21.28854 36345 ft 447 kts 314°
2026-05-01 10:19 46.22334 21.21860 36353 ft 447 kts 314°
2026-05-01 10:20 46.28137 21.11391 36343 ft 447 kts 314°
2026-05-01 10:20 46.32017 21.04370 36340 ft 447 kts 314°
2026-05-01 10:21 46.37828 20.93821 36338 ft 447 kts 314°
2026-05-01 10:22 46.43631 20.83246 36341 ft 447 kts 314°
2026-05-01 10:23 46.49433 20.72634 36344 ft 448 kts 314°
2026-05-01 10:23 46.55224 20.61999 36341 ft 448 kts 314°
2026-05-01 10:24 46.62946 20.47758 36349 ft 449 kts 315°
2026-05-01 10:25 46.70662 20.33450 36349 ft 449 kts 314°
2026-05-01 10:26 46.74512 20.26284 36348 ft 449 kts 314°
2026-05-01 10:27 46.82203 20.11914 36360 ft 449 kts 314°
2026-05-01 10:28 46.87957 20.01112 36365 ft 449 kts 314°
2026-05-01 10:28 46.93685 19.90321 36372 ft 451 kts 315°
2026-05-01 10:29 46.99442 19.79432 36373 ft 451 kts 315°
2026-05-01 10:30 47.07102 19.64872 36361 ft 451 kts 315°
2026-05-01 10:31 47.14766 19.50229 36351 ft 453 kts 315°
2026-05-01 10:32 47.18615 19.42850 35546 ft 457 kts 316°
2026-05-01 10:32 47.20566 19.39105 34662 ft 463 kts 316°
2026-05-01 10:32 47.24511 19.31516 32927 ft 467 kts 317°
2026-05-01 10:33 47.28393 19.23986 31963 ft 454 kts 317°
2026-05-01 10:33 47.32152 19.16673 31055 ft 441 kts 317°
2026-05-01 10:34 47.33882 19.12936 30651 ft 445 kts 308°
2026-05-01 10:34 47.35305 19.08906 30249 ft 441 kts 307°
2026-05-01 10:34 47.36648 19.04870 29759 ft 436 kts 305°
2026-05-01 10:35 47.39171 18.96866 28868 ft 424 kts 304°
2026-05-01 10:35 47.40388 18.92927 28429 ft 419 kts 304°
2026-05-01 10:35 47.41588 18.89041 28004 ft 414 kts 304°
2026-05-01 10:35 47.42778 18.85193 27574 ft 410 kts 304°
2026-05-01 10:36 47.45129 18.77615 26719 ft 402 kts 304°
2026-05-01 10:36 47.46288 18.73881 26286 ft 398 kts 304°
2026-05-01 10:36 47.47439 18.70173 25870 ft 395 kts 303°
2026-05-01 10:37 47.48578 18.66496 25448 ft 392 kts 303°
2026-05-01 10:37 47.50825 18.59226 24632 ft 385 kts 303°
2026-05-01 10:37 47.51932 18.55634 24220 ft 383 kts 303°
2026-05-01 10:38 47.53033 18.52062 23796 ft 380 kts 303°
2026-05-01 10:38 47.54015 18.48417 23338 ft 382 kts 297°
2026-05-01 10:38 47.54857 18.44712 22968 ft 378 kts 296°
2026-05-01 10:38 47.55662 18.41032 22556 ft 374 kts 296°
2026-05-01 10:39 47.56450 18.37378 22153 ft 371 kts 295°
2026-05-01 10:39 47.57226 18.33756 21752 ft 367 kts 295°
2026-05-01 10:39 47.57991 18.30168 21352 ft 364 kts 295°
2026-05-01 10:39 47.58748 18.26609 20940 ft 360 kts 295°
2026-05-01 10:40 47.59485 18.23131 20580 ft 357 kts 295°
2026-05-01 10:40 47.60224 18.19643 20187 ft 354 kts 295°
2026-05-01 10:40 47.60957 18.16174 19811 ft 351 kts 295°
2026-05-01 10:40 47.61683 18.12734 19428 ft 349 kts 295°
2026-05-01 10:41 47.62403 18.09313 19043 ft 347 kts 294°
2026-05-01 10:41 47.63119 18.05910 18654 ft 345 kts 294°
2026-05-01 10:41 47.64530 17.99178 17874 ft 338 kts 294°
2026-05-01 10:42 47.65225 17.95852 17503 ft 337 kts 294°
2026-05-01 10:42 47.65916 17.92546 17133 ft 336 kts 294°
2026-05-01 10:42 47.66605 17.89243 16739 ft 334 kts 294°
2026-05-01 10:42 47.67288 17.85959 16392 ft 332 kts 294°
2026-05-01 10:43 47.67966 17.82693 16027 ft 331 kts 294°
2026-05-01 10:43 47.68641 17.79439 15682 ft 329 kts 294°
2026-05-01 10:43 47.69310 17.76208 15306 ft 327 kts 293°
2026-05-01 10:43 47.69974 17.72997 14957 ft 325 kts 293°
2026-05-01 10:44 47.70634 17.69800 14602 ft 323 kts 293°
2026-05-01 10:44 47.71288 17.66622 14247 ft 321 kts 293°
2026-05-01 10:44 47.71938 17.63465 13857 ft 319 kts 293°
2026-05-01 10:44 47.72582 17.60328 13499 ft 317 kts 293°
2026-05-01 10:45 47.73222 17.57213 13151 ft 315 kts 293°
2026-05-01 10:45 47.73859 17.54103 12795 ft 313 kts 292°
2026-05-01 10:45 47.74431 17.50988 12450 ft 314 kts 285°
2026-05-01 10:45 47.74538 17.47738 12119 ft 317 kts 271°
2026-05-01 10:46 47.74354 17.44463 11769 ft 318 kts 268°
2026-05-01 10:46 47.74115 17.41210 11410 ft 316 kts 267°
2026-05-01 10:46 47.73875 17.38024 11291 ft 304 kts 267°
2026-05-01 10:46 47.73645 17.34948 11083 ft 298 kts 267°
2026-05-01 10:47 47.73424 17.31897 10707 ft 298 kts 267°
2026-05-01 10:47 47.73203 17.28831 10375 ft 297 kts 267°
2026-05-01 10:47 47.72984 17.25787 10026 ft 295 kts 267°
2026-05-01 10:47 47.72766 17.22772 9715 ft 292 kts 267°
2026-05-01 10:48 47.72550 17.19799 9406 ft 288 kts 267°
2026-05-01 10:48 47.72337 17.16866 9095 ft 284 kts 267°
2026-05-01 10:48 47.72126 17.13964 8780 ft 281 kts 267°
2026-05-01 10:48 47.71916 17.11097 8479 ft 278 kts 267°
2026-05-01 10:49 47.71803 17.08241 8172 ft 275 kts 278°
2026-05-01 10:49 47.72250 17.05598 7896 ft 263 kts 302°
2026-05-01 10:49 47.73345 17.03514 7615 ft 253 kts 324°
2026-05-01 10:49 47.74747 17.01944 7358 ft 252 kts 330°
2026-05-01 10:50 47.76223 17.00473 7090 ft 251 kts 331°
2026-05-01 10:50 47.77654 16.99062 6827 ft 249 kts 330°
2026-05-01 10:50 47.79092 16.97633 6545 ft 248 kts 330°
2026-05-01 10:50 47.80522 16.96203 6273 ft 247 kts 330°
2026-05-01 10:51 47.81943 16.94775 6013 ft 246 kts 330°
2026-05-01 10:51 47.83362 16.93345 5736 ft 246 kts 330°
2026-05-01 10:51 47.84778 16.91914 5461 ft 246 kts 329°
2026-05-01 10:51 47.86218 16.90459 5302 ft 258 kts 329°
2026-05-01 10:52 47.87723 16.88939 5151 ft 263 kts 329°
2026-05-01 10:52 47.89292 16.87549 5051 ft 261 kts 336°
2026-05-01 10:52 47.90904 16.86310 4993 ft 261 kts 334°
2026-05-01 10:52 47.92344 16.85067 4950 ft 261 kts 332°
2026-05-01 10:53 47.93201 16.84295 4887 ft 261 kts 336°